Location: Joffre
(52.3362°N, 113.5373°W)
Time: 13:03:25
(UTC+00:00)

Envisat - Pass Details

Date: 02 December 2021
Orbit: 764 x 766 km, 98.2° (Epoch: 23 January)

Event Time Altitude Azimuth Distance (km) Brightness Sun altitude
Rises 01:24:12 0° 225° (SW) 3,226 7.3 -17.3°
Reaches altitude 10° 01:28:22 10° 259° (W) 2,307 6.8 -17.9°
Maximum altitude 01:29:57 11° 277° (W) 2,216 6.4 -18.2°
Drops below altitude 10° 01:31:33 10° 296° (WNW) 2,313 6.2 -18.4°
Sets 01:35:45 0° 330° (NNW) 3,247 6.5 -19.0°
